This demonstration page uses our WeatherBlox Daily Observations layout. Learn more.

38.88101, -77.10428

Hourly Observations for April 23, 2018

Temp ( °F °C ) Dew Point ( °F °C ) Humidity (%) Winds ( mph kmh ) Pressure ( in mb ) Visibility ( mi km ) Precip ( " mm )
12:52 am 00:52 Cloudy 54 12.2 37 2.8 53 53 SSE 5 7 30.42 1030 10 16.0934 0 0
1:52 am 01:52 Cloudy 54 12.2 36 2.2 51 51 SSE 5 7 30.41 1030 10 16.0934 0 0
2:52 am 02:52 Cloudy 53 11.7 37 2.8 55 55 Calm 30.4 1030 10 16.0934 0 0
3:52 am 03:52 Mostly Cloudy 53 11.7 37 2.8 55 55 SSE 3 6 30.4 1030 10 16.0934 0 0
4:52 am 04:52 Mostly Cloudy 52 11.1 38 3.3 59 59 Calm 30.41 1030 10 16.0934 0 0
5:52 am 05:52 Mostly Cloudy 52 11.1 39 3.9 61 61 Calm 30.41 1030 10 16.0934 0 0
6:52 am 06:52 Mostly Cloudy 51 10.6 40 4.4 66 66 SSE 3 6 30.43 1030 10 16.0934 0 0
7:52 am 07:52 Mostly Cloudy 53 11.7 41 5 64 64 S 3 6 30.43 1031 10 16.0934 0 0
8:52 am 08:52 Cloudy 56 13.3 40 4.4 55 55 S 5 7 30.44 1031 10 16.0934 0 0
9:52 am 09:52 Mostly Cloudy 59 15 41 5 51 51 Calm 30.44 1031 10 16.0934 0 0
10:52 am 10:52 Cloudy 63 17.2 44 6.7 50 50 Calm 30.43 1030 10 16.0934 0 0
11:52 am 11:52 Cloudy 66 18.9 45 7.2 47 47 SSW 8 13 30.42 1030 10 16.0934 0 0
12:52 pm 12:52 Cloudy 67 19.4 43 6.1 42 42 S 10 17 30.4 1030 10 16.0934 0 0
1:52 pm 13:52 Cloudy 66 18.9 45 7.2 47 47 SSE 10 17 30.4 1030 10 16.0934 0 0
2:52 pm 14:52 Cloudy 69 20.6 47 8.3 45 45 SSE 13 20 30.38 1029 10 16.0934 0 0
3:52 pm 15:52 Mostly Cloudy 67 19.4 44 6.7 44 44 ESE 17 28 30.36 1028 10 16.0934 0 0
4:52 pm 16:52 Mostly Cloudy 67 19.4 42 5.6 41 41 SSE 15 24 30.34 1028 10 16.0934 0 0
5:52 pm 17:52 Mostly Cloudy 65 18.3 42 5.6 43 43 SSE 16 26 30.36 1028 10 16.0934 0 0
6:52 pm 18:52 Mostly Cloudy 63 17.2 39 3.9 41 41 SE 15 24 30.37 1028 10 16.0934 0 0
7:52 pm 19:52 Mostly Cloudy 61 16.1 34 1.1 36 36 SE 13 20 30.38 1029 10 16.0934 0 0
8:52 pm 20:52 Mostly Cloudy 59 15 30 -1.1 33 33 SE 10 17 30.38 1029 10 16.0934 0 0
9:52 pm 21:52 Mostly Cloudy 58 14.4 30 -1.1 35 35 SE 8 13 30.39 1029 10 16.0934 0 0
10:52 pm 22:52 Mostly Cloudy 56 13.3 33 0.6 42 42 S 6 9 30.38 1029 10 16.0934 0 0
11:52 pm 23:52 Cloudy 56 13.3 34 1.1 44 44 SE 7 11 30.36 1028 10 16.0934 0 0

Powered by AerisWeather